Le nostre stazioni meteo in Italia

Pubblicità
Il mio iltempo24.it
Tyndrum, Gran Bretagna (99020): Temperatura & dewpoint: 15.01.2017 21:00:00 - 21.01.2017 21:00:00 (GMT)Tyndrum, Gran Bretagna (99020): precipitazioni: 15.01.2017 21:00:00 - 21.01.2017 21:00:00 (GMT)
Data & Tempo tt [°C] td [°C] rr [mm]
21.01.2017 21:00:00 -1,8 -2,0 0,0
21.01.2017 20:00:00 -1,4 -1,6 0,0
21.01.2017 19:00:00 -0,8 -1,0 0,0
21.01.2017 18:00:00 -0,5 -0,8 0,0
21.01.2017 17:00:00 0,1 -0,3 0,0
21.01.2017 16:00:00 0,5 0,0 0,0
21.01.2017 15:00:00 0,8 0,2 0,0
21.01.2017 14:00:00 1,1 0,7 0,0
21.01.2017 13:00:00 1,0 0,3 0,0
21.01.2017 12:00:00 1,7 1,3 0,0
21.01.2017 11:00:00 0,6 0,4 0,0
21.01.2017 10:00:00 0,0 -0,2 0,0
21.01.2017 09:00:00 -1,1 -1,5 0,0
21.01.2017 08:00:00 -0,8 -1,5 0,0
21.01.2017 07:00:00 0,4 0,0 0,0
21.01.2017 06:00:00 -0,1 -0,7 0,0
21.01.2017 05:00:00 0,1 -0,6 0,0
21.01.2017 04:00:00 1,1 0,2 0,0
21.01.2017 03:00:00 2,2 1,3 0,0
21.01.2017 02:00:00 2,6 1,7 0,0
21.01.2017 01:00:00 3,2 2,1 0,0
21.01.2017 00:00:00 3,1 2,3 0,0
20.01.2017 23:00:00 3,1 2,3 0,0
20.01.2017 22:00:00 3,3 1,9 0,0
20.01.2017 21:00:00 3,4 2,0 0,0
20.01.2017 20:00:00 3,2 2,1 0,0
20.01.2017 19:00:00 3,2 2,2 0,0
20.01.2017 18:00:00 3,2 2,1 0,0
20.01.2017 17:00:00 3,2 1,8 0,0
20.01.2017 16:00:00 3,8 2,2 0,0
20.01.2017 15:00:00 3,9 2,2 0,0
20.01.2017 14:00:00 4,0 2,0 0,0
20.01.2017 13:00:00 4,2 2,2 0,0
20.01.2017 12:00:00 3,7 1,8 0,0
20.01.2017 11:00:00 4,0 2,2 0,0
20.01.2017 10:00:00 3,9 2,2 0,0
20.01.2017 09:00:00 4,0 2,3 0,0
20.01.2017 08:00:00 4,3 2,4 0,0
20.01.2017 07:00:00 4,5 3,0 0,0
20.01.2017 06:00:00 4,6 2,9 0,0
20.01.2017 05:00:00 4,8 3,1 0,0
20.01.2017 04:00:00 5,0 3,0 0,0
20.01.2017 03:00:00 5,3 3,7 0,0
20.01.2017 02:00:00 5,3 4,3 0,0
20.01.2017 01:00:00 5,4 4,5 0,0
20.01.2017 00:00:00 5,5 4,6 0,0
19.01.2017 23:00:00 5,8 4,7 0,0
19.01.2017 22:00:00 5,8 4,9 0,0
19.01.2017 21:00:00 6,0 5,0 0,0
19.01.2017 20:00:00 6,3 4,9 0,0
19.01.2017 19:00:00 6,3 4,9 0,0
19.01.2017 18:00:00 6,4 4,7 0,0
19.01.2017 17:00:00 6,5 4,8 0,0
19.01.2017 16:00:00 7,0 4,9 0,0
19.01.2017 15:00:00 7,3 4,7 0,0
19.01.2017 14:00:00 7,4 4,5 0,0
19.01.2017 13:00:00 7,4 4,5 0,0
19.01.2017 12:00:00 7,4 4,8 0,0
19.01.2017 11:00:00 7,2 4,9 0,0
19.01.2017 10:00:00 6,6 5,0 -
19.01.2017 09:00:00 6,5 4,6 0,0
19.01.2017 08:00:00 5,9 4,4 0,0
19.01.2017 07:00:00 6,3 4,4 0,0
19.01.2017 06:00:00 6,6 4,5 0,0
19.01.2017 05:00:00 6,7 4,5 0,0
19.01.2017 04:00:00 7,0 4,6 0,0
19.01.2017 03:00:00 6,9 5,0 0,0
19.01.2017 02:00:00 6,7 5,1 0,0
19.01.2017 01:00:00 6,8 5,1 0,0
19.01.2017 00:00:00 6,7 5,1 0,0
18.01.2017 23:00:00 6,5 5,2 0,0
18.01.2017 22:00:00 6,7 5,3 0,0
18.01.2017 21:00:00 6,6 5,2 0,0
18.01.2017 20:00:00 7,0 5,3 0,0
18.01.2017 19:00:00 7,0 5,3 0,0
18.01.2017 18:00:00 6,9 5,5 0,0
18.01.2017 17:00:00 6,8 5,3 0,0
18.01.2017 16:00:00 7,5 5,5 0,0
18.01.2017 15:00:00 7,9 5,6 0,0
18.01.2017 14:00:00 8,0 5,4 0,0
18.01.2017 13:00:00 8,0 5,6 0,0
18.01.2017 12:00:00 8,0 5,3 0,0
18.01.2017 11:00:00 7,8 4,8 0,0
18.01.2017 10:00:00 7,7 4,1 0,0
18.01.2017 09:00:00 7,7 4,3 0,0
18.01.2017 08:00:00 7,7 4,6 0,0
18.01.2017 07:00:00 8,0 5,1 0,2
18.01.2017 06:00:00 7,7 5,4 0,0
18.01.2017 05:00:00 7,6 5,9 0,0
18.01.2017 04:00:00 7,7 5,5 0,0
18.01.2017 03:00:00 7,8 5,0 0,0
18.01.2017 02:00:00 7,8 5,0 0,0
18.01.2017 01:00:00 7,8 5,3 0,0
18.01.2017 00:00:00 8,3 5,6 0,0
17.01.2017 23:00:00 8,4 5,1 0,0
17.01.2017 22:00:00 7,4 6,1 0,0
17.01.2017 21:00:00 8,1 6,3 0,0
17.01.2017 20:00:00 8,1 7,3 0,0
17.01.2017 19:00:00 8,1 7,0 0,0
17.01.2017 18:00:00 8,8 7,5 0,0
17.01.2017 17:00:00 9,0 7,7 0,0
17.01.2017 16:00:00 9,3 8,2 0,0
17.01.2017 15:00:00 10,2 8,8 0,0
17.01.2017 14:00:00 10,2 8,6 0,0
17.01.2017 13:00:00 10,4 10,0 0,0
17.01.2017 12:00:00 9,8 9,7 0,0
17.01.2017 11:00:00 9,2 9,1 0,0
17.01.2017 10:00:00 8,4 8,4 0,0
17.01.2017 09:00:00 8,3 8,3 0,0
17.01.2017 08:00:00 8,1 8,1 0,2
17.01.2017 07:00:00 8,2 8,2 0,0
17.01.2017 06:00:00 8,3 8,3 0,0
17.01.2017 05:00:00 7,8 7,8 0,0
17.01.2017 04:00:00 7,7 7,6 0,2
17.01.2017 03:00:00 7,6 7,5 0,0
17.01.2017 02:00:00 7,7 7,6 0,0
17.01.2017 01:00:00 7,6 7,5 0,0
17.01.2017 00:00:00 7,6 7,5 0,2
16.01.2017 23:00:00 7,6 7,6 0,0
16.01.2017 22:00:00 7,8 7,7 0,0
16.01.2017 21:00:00 7,8 7,6 0,0
16.01.2017 20:00:00 7,4 7,2 0,0
16.01.2017 19:00:00 7,7 7,3 0,0
16.01.2017 18:00:00 8,0 7,5 0,2
16.01.2017 17:00:00 8,4 7,5 0,0
16.01.2017 16:00:00 8,9 7,9 0,0
16.01.2017 15:00:00 9,4 8,2 0,0
16.01.2017 14:00:00 9,1 8,2 0,0
16.01.2017 13:00:00 9,0 8,0 0,0
16.01.2017 12:00:00 9,0 8,2 0,0
16.01.2017 11:00:00 8,5 8,2 0,0
16.01.2017 10:00:00 7,9 7,5 0,0
16.01.2017 09:00:00 7,6 7,2 0,0
16.01.2017 08:00:00 7,7 7,4 0,0
16.01.2017 07:00:00 7,3 7,0 0,0
16.01.2017 06:00:00 7,5 7,3 0,0
16.01.2017 05:00:00 7,4 7,2 0,0
16.01.2017 04:00:00 8,1 7,9 0,0
16.01.2017 03:00:00 8,0 7,9 0,0
16.01.2017 02:00:00 7,5 7,5 0,0
16.01.2017 01:00:00 6,9 6,9 0,0
16.01.2017 00:00:00 6,7 6,7 0,0
15.01.2017 23:00:00 6,7 6,7 0,0
15.01.2017 22:00:00 6,8 6,8 0,0
15.01.2017 21:00:00 6,8 6,8 0,0

tt = Temperatura
td = dewpoint
rr = precipitazioni

Stazioni seguenti

WeatherPro
AMSI
MeteoEarth